TimeCST,TemperatureF,Dew PointF,Humidity,Sea Level PressureIn,VisibilityMPH,Wind Direction,Wind SpeedMPH,Gust SpeedMPH,PrecipitationIn,Events,Conditions,WindDirDegrees,DateUTC
12:56 AM,30.0,19.0,64,29.60,10.0,Calm,Calm,-,N/A,,Clear,0,2011-11-12 06:56:00
1:56 AM,28.0,19.0,69,29.58,10.0,Calm,Calm,-,N/A,,Clear,0,2011-11-12 07:56:00
2:56 AM,28.9,21.0,72,29.56,10.0,Calm,Calm,-,N/A,,Clear,0,2011-11-12 08:56:00
3:56 AM,28.9,19.0,67,29.54,10.0,Calm,Calm,-,N/A,,Clear,0,2011-11-12 09:56:00
4:56 AM,25.0,19.0,78,29.53,10.0,East,3.5,-,N/A,,Clear,90,2011-11-12 10:56:00
5:56 AM,32.0,18.0,56,29.52,10.0,SSW,5.8,-,N/A,,Clear,200,2011-11-12 11:56:00
6:56 AM,37.0,19.0,48,29.50,10.0,South,4.6,-,N/A,,Clear,180,2011-11-12 12:56:00
7:56 AM,35.1,19.9,54,29.49,10.0,Calm,Calm,-,N/A,,Clear,0,2011-11-12 13:56:00
8:56 AM,39.9,23.0,51,29.49,10.0,South,10.4,-,N/A,,Clear,190,2011-11-12 14:56:00
9:56 AM,46.4,21.2,37,29.45,10.0,South,12.7,-,N/A,,Clear,180,2011-11-12 15:56:00
10:56 AM,53.1,23.0,31,29.45,10.0,South,15.0,-,N/A,,Clear,170,2011-11-12 16:56:00
11:56 AM,60.1,23.0,24,29.41,10.0,South,15.0,-,N/A,,Clear,180,2011-11-12 17:56:00
12:56 PM,60.8,24.8,25,29.35,10.0,South,16.1,-,N/A,,Clear,180,2011-11-12 18:56:00
1:56 PM,59.0,25.0,27,29.34,10.0,South,13.8,24.2,N/A,,Clear,180,2011-11-12 19:56:00
2:56 PM,55.9,27.0,33,29.31,10.0,South,18.4,25.3,N/A,,Clear,180,2011-11-12 20:56:00
3:56 PM,54.0,28.9,38,29.31,10.0,South,12.7,19.6,N/A,,Clear,190,2011-11-12 21:56:00
4:56 PM,53.1,30.0,41,29.30,10.0,South,15.0,-,N/A,,Clear,180,2011-11-12 22:56:00
5:56 PM,50.0,35.1,57,29.30,10.0,South,17.3,24.2,N/A,,Clear,180,2011-11-12 23:56:00
6:56 PM,48.0,36.0,63,29.29,10.0,SSW,13.8,-,N/A,,Clear,200,2011-11-13 00:56:00
7:56 PM,48.0,35.1,61,29.28,10.0,SSW,15.0,21.9,N/A,,Clear,200,2011-11-13 01:56:00
8:56 PM,46.4,35.6,66,29.24,10.0,SSW,8.1,-,N/A,,Clear,210,2011-11-13 02:56:00
9:56 PM,44.6,33.8,66,29.24,10.0,SSW,5.8,-,N/A,,Clear,210,2011-11-13 03:56:00
10:56 PM,46.0,30.9,56,29.25,10.0,WSW,4.6,-,N/A,,Clear,250,2011-11-13 04:56:00
11:56 PM,46.0,27.0,47,29.26,10.0,WSW,5.8,-,N/A,,Clear,250,2011-11-13 05:56:00